Station History

Weather Underground - logo

Station Historical Data
 
Daily Summary for October 17, 2017 Units:  English    Metric   Both
« Previous Day
Next Day »
Daily Weekly Monthly Yearly Custom
  Current: High: Low: Average:
Temperature: 78.3 °F 84.0 °F 49.3 °F 64.9 °F
Dew Point: 47.6 °F 51.0 °F 44.1 °F 46.9 °F
Humidity: 34 % 87 % 26 % 58 %
Wind Speed: 0.0 mph 3.5 mph 0.0 mph 0.8 mph
Wind Gust: 0.0 mph 3.5 mph - -
Wind:Calm - - West
Pressure: 29.98 in 30.09 in 29.98 in -
Precipitation: 0.00 in      
Historical Graphs
 
 
Tabular Data for October 17, 2017
Time Temperature Dew Point Pressure Wind Wind Speed Wind Gust Humidity Rainfall Rate (Hourly)
00:01 58.0 °F 48.3 °F 30.08 in Calm     70 % 0.00 in
00:06 57.2 °F 47.9 °F 30.08 in Calm     71 % 0.00 in
00:11 56.3 °F 47.8 °F 30.08 in Calm     73 % 0.00 in
00:16 55.7 °F 47.5 °F 30.08 in Calm     74 % 0.00 in
00:21 55.4 °F 47.2 °F 30.08 in Calm     74 % 0.00 in
00:26 55.5 °F 47.0 °F 30.08 in Calm     73 % 0.00 in
00:31 55.3 °F 47.2 °F 30.08 in Calm     74 % 0.00 in
00:36 55.1 °F 47.0 °F 30.07 in Calm     74 % 0.00 in
00:41 55.4 °F 46.9 °F 30.07 in Calm     73 % 0.00 in
00:46 55.2 °F 47.1 °F 30.07 in Calm     74 % 0.00 in
00:51 54.7 °F 46.6 °F 30.07 in Calm     74 % 0.00 in
00:56 54.5 °F 45.7 °F 30.07 in WNW 1.2 mph   72 % 0.00 in
01:01 54.9 °F 46.0 °F 30.07 in Calm     72 % 0.00 in
01:06 54.6 °F 46.5 °F 30.07 in Calm     74 % 0.00 in
01:11 54.1 °F 45.6 °F 30.07 in Calm     73 % 0.00 in
01:16 54.6 °F 45.4 °F 30.06 in Calm     71 % 0.00 in
01:21 54.9 °F 45.3 °F 30.06 in WNW 1.2 mph 1.2 mph 70 % 0.00 in
01:26 55.1 °F 44.7 °F 30.06 in Calm     68 % 0.00 in
01:31 55.2 °F 45.6 °F 30.06 in Calm     70 % 0.00 in
01:36 54.7 °F 46.6 °F 30.06 in Calm     74 % 0.00 in
01:41 54.2 °F 46.8 °F 30.06 in Calm     76 % 0.00 in
01:46 53.5 °F 46.8 °F 30.06 in Calm     78 % 0.00 in
01:51 52.9 °F 46.2 °F 30.06 in Calm     78 % 0.00 in
01:56 52.5 °F 46.2 °F 30.06 in Calm     79 % 0.00 in
02:01 52.1 °F 45.4 °F 30.06 in Calm     78 % 0.00 in
02:06 52.2 °F 44.9 °F 30.06 in Calm     76 % 0.00 in
02:11 52.3 °F 45.6 °F 30.06 in Calm     78 % 0.00 in
02:16 52.1 °F 46.1 °F 30.06 in Calm     80 % 0.00 in
02:21 51.9 °F 45.3 °F 30.05 in Calm     78 % 0.00 in
02:26 52.1 °F 45.8 °F 30.05 in Calm     79 % 0.00 in
02:31 52.0 °F 45.4 °F 30.06 in Calm     78 % 0.00 in
02:36 51.6 °F 45.6 °F 30.06 in Calm     80 % 0.00 in
02:41 51.2 °F 45.6 °F 30.06 in Calm     81 % 0.00 in
02:46 50.8 °F 45.2 °F 30.06 in Calm     81 % 0.00 in
02:51 50.6 °F 45.3 °F 30.06 in Calm     82 % 0.00 in
02:56 50.5 °F 45.5 °F 30.06 in Calm     83 % 0.00 in
03:01 49.9 °F 44.9 °F 30.06 in Calm     83 % 0.00 in
03:06 49.5 °F 44.6 °F 30.06 in Calm     83 % 0.00 in
03:11 49.4 °F 44.1 °F 30.06 in Calm     82 % 0.00 in
03:16 49.5 °F 44.6 °F 30.06 in Calm     83 % 0.00 in
03:21 49.7 °F 44.4 °F 30.05 in Calm     82 % 0.00 in
03:27 49.7 °F 44.4 °F 30.05 in Calm     82 % 0.00 in
03:32 49.8 °F 44.2 °F 30.05 in Calm     81 % 0.00 in
03:37 49.7 °F 44.1 °F 30.05 in Calm     81 % 0.00 in
03:42 49.6 °F 44.3 °F 30.04 in Calm     82 % 0.00 in
03:47 49.7 °F 45.1 °F 30.04 in Calm     84 % 0.00 in
03:52 49.7 °F 45.1 °F 30.04 in Calm     84 % 0.00 in
03:57 50.1 °F 44.5 °F 30.04 in Calm     81 % 0.00 in
04:02 50.5 °F 44.6 °F 30.04 in Calm     80 % 0.00 in
04:07 50.5 °F 45.5 °F 30.04 in Calm     83 % 0.00 in
04:12 50.2 °F 45.6 °F 30.04 in Calm     84 % 0.00 in
04:17 50.1 °F 45.1 °F 30.04 in Calm     83 % 0.00 in
04:22 50.1 °F 45.5 °F 30.04 in Calm     84 % 0.00 in
04:27 50.1 °F 45.5 °F 30.04 in Calm     84 % 0.00 in
04:32 49.9 °F 45.3 °F 30.04 in Calm     84 % 0.00 in
04:37 49.8 °F 45.2 °F 30.04 in Calm     84 % 0.00 in
04:42 49.8 °F 45.5 °F 30.04 in Calm     85 % 0.00 in
04:47 50.0 °F 45.7 °F 30.04 in Calm     85 % 0.00 in
04:52 50.0 °F 45.7 °F 30.05 in Calm     85 % 0.00 in
04:57 50.0 °F 45.7 °F 30.05 in Calm     85 % 0.00 in
05:02 49.9 °F 45.6 °F 30.05 in Calm     85 % 0.00 in
05:07 50.3 °F 46.0 °F 30.05 in Calm     85 % 0.00 in
05:12 50.3 °F 46.0 °F 30.05 in Calm     85 % 0.00 in
05:17 50.1 °F 45.5 °F 30.05 in Calm     84 % 0.00 in
05:22 50.2 °F 45.2 °F 30.05 in Calm     83 % 0.00 in
05:27 50.3 °F 44.7 °F 30.05 in Calm     81 % 0.00 in
05:32 50.5 °F 44.6 °F 30.05 in Calm     80 % 0.00 in
05:37 50.6 °F 44.3 °F 30.05 in Calm     79 % 0.00 in
05:42 50.6 °F 44.7 °F 30.05 in Calm     80 % 0.00 in
05:47 50.6 °F 45.0 °F 30.05 in Calm     81 % 0.00 in
05:52 50.5 °F 44.9 °F 30.06 in Calm     81 % 0.00 in
05:57 50.4 °F 44.8 °F 30.06 in Calm     81 % 0.00 in
06:02 50.4 °F 45.4 °F 30.06 in Calm     83 % 0.00 in
06:07 50.3 °F 45.6 °F 30.07 in Calm     84 % 0.00 in
06:12 50.1 °F 45.5 °F 30.07 in Calm     84 % 0.00 in
06:17 50.1 °F 45.8 °F 30.06 in Calm     85 % 0.00 in
06:22 49.8 °F 45.5 °F 30.07 in Calm     85 % 0.00 in
06:27 49.7 °F 45.4 °F 30.07 in Calm     85 % 0.00 in
06:32 49.7 °F 45.4 °F 30.07 in Calm     85 % 0.00 in
06:37 49.8 °F 45.5 °F 30.06 in Calm     85 % 0.00 in
06:42 49.7 °F 45.4 °F 30.06 in Calm     85 % 0.00 in
06:47 49.8 °F 45.2 °F 30.06 in Calm     84 % 0.00 in
06:48 49.7 °F 45.1 °F 30.06 in Calm     84 % 0.00 in
06:53 49.7 °F 45.1 °F 30.06 in Calm     84 % 0.00 in
06:58 49.5 °F 44.9 °F 30.07 in Calm     84 % 0.00 in
07:03 49.7 °F 45.1 °F 30.07 in Calm     84 % 0.00 in
07:08 49.6 °F 45.3 °F 30.07 in Calm     85 % 0.00 in
07:13 49.4 °F 45.4 °F 30.07 in Calm     86 % 0.00 in
07:18 49.3 °F 45.3 °F 30.07 in Calm     86 % 0.00 in
07:23 49.3 °F 45.3 °F 30.07 in Calm     86 % 0.00 in
07:28 49.6 °F 45.6 °F 30.07 in Calm     86 % 0.00 in
07:33 49.7 °F 45.7 °F 30.07 in Calm     86 % 0.00 in
07:38 49.7 °F 45.7 °F 30.07 in Calm     86 % 0.00 in
07:43 50.2 °F 46.5 °F 30.07 in Calm     87 % 0.00 in
07:48 50.4 °F 46.4 °F 30.07 in Calm     86 % 0.00 in
07:53 50.7 °F 46.4 °F 30.07 in Calm     85 % 0.00 in
07:58 51.6 °F 46.0 °F 30.07 in Calm     81 % 0.00 in
08:03 52.8 °F 45.8 °F 30.07 in WNW 1.2 mph   77 % 0.00 in
08:09 54.0 °F 47.0 °F 30.08 in Calm     77 % 0.00 in
08:14 54.8 °F 48.4 °F 30.08 in Calm     79 % 0.00 in
08:19 55.5 °F 48.8 °F 30.08 in Calm     78 % 0.00 in
08:24 56.2 °F 48.7 °F 30.08 in Calm     76 % 0.00 in
08:29 57.2 °F 48.6 °F 30.08 in Calm     73 % 0.00 in
08:34 58.3 °F 49.3 °F 30.08 in Calm     72 % 0.00 in
08:39 59.5 °F 49.7 °F 30.08 in Calm     70 % 0.00 in
08:44 60.8 °F 49.4 °F 30.08 in Calm     66 % 0.00 in
08:49 62.1 °F 50.2 °F 30.08 in Calm     65 % 0.00 in
08:54 63.0 °F 50.6 °F 30.08 in Calm     64 % 0.00 in
08:59 63.8 °F 48.7 °F 30.08 in Calm     58 % 0.00 in
09:04 64.6 °F 49.5 °F 30.08 in Calm     58 % 0.00 in
09:09 65.5 °F 48.4 °F 30.08 in Calm     54 % 0.00 in
09:14 66.6 °F 47.9 °F 30.08 in Calm     51 % 0.00 in
09:19 67.3 °F 46.9 °F 30.09 in Calm     48 % 0.00 in
09:24 67.7 °F 47.3 °F 30.09 in SSE 1.2 mph 1.2 mph 48 % 0.00 in
09:29 68.1 °F 47.1 °F 30.08 in SE 1.2 mph 1.2 mph 47 % 0.00 in
09:34 68.4 °F 46.8 °F 30.08 in SE 1.2 mph 1.2 mph 46 % 0.00 in
09:39 68.6 °F 46.4 °F 30.08 in South 1.2 mph 1.2 mph 45 % 0.00 in
09:44 69.1 °F 46.3 °F 30.08 in Calm     44 % 0.00 in
09:49 69.5 °F 46.0 °F 30.08 in Calm     43 % 0.00 in
09:54 69.7 °F 46.2 °F 30.08 in Calm     43 % 0.00 in
09:59 70.2 °F 46.0 °F 30.08 in Calm     42 % 0.00 in
10:04 71.3 °F 47.0 °F 30.08 in ESE 2.3 mph 2.3 mph 42 % 0.00 in
10:09 71.9 °F 46.9 °F 30.08 in Calm   0.1 mph 41 % 0.00 in
10:14 72.6 °F 46.9 °F 30.08 in SE 1.2 mph 1.2 mph 40 % 0.00 in
10:19 73.0 °F 46.6 °F 30.08 in SSW 1.2 mph 1.2 mph 39 % 0.00 in
10:23 73.5 °F 46.3 °F 30.08 in Calm     38 % 0.00 in
10:28 74.0 °F 48.1 °F 30.07 in Calm     40 % 0.00 in
10:33 74.9 °F 47.6 °F 30.07 in South 2.3 mph 2.3 mph 38 % 0.00 in
10:38 75.5 °F 48.1 °F 30.07 in Calm     38 % 0.00 in
10:43 75.5 °F 47.4 °F 30.07 in NW 2.3 mph 2.3 mph 37 % 0.00 in
10:48 75.0 °F 47.0 °F 30.07 in NW 1.2 mph 1.2 mph 37 % 0.00 in
10:53 75.3 °F 49.3 °F 30.07 in SSW 1.2 mph 1.2 mph 40 % 0.00 in
10:58 76.0 °F 48.6 °F 30.07 in WNW 1.2 mph 1.2 mph 38 % 0.00 in
11:03 76.3 °F 48.1 °F 30.07 in NW 2.3 mph   37 % 0.00 in
11:08 76.2 °F 48.0 °F 30.07 in WNW 3.5 mph 3.5 mph 37 % 0.00 in
11:13 76.4 °F 48.2 °F 30.07 in NW 1.2 mph 1.2 mph 37 % 0.00 in
11:18 76.7 °F 48.5 °F 30.07 in Calm     37 % 0.00 in
11:23 77.1 °F 47.3 °F 30.07 in North 2.3 mph 2.3 mph 35 % 0.00 in
11:24 77.1 °F 47.3 °F 30.07 in NNW 2.3 mph 2.3 mph 35 % 0.00 in
11:28 77.2 °F 48.2 °F 30.06 in Calm     36 % 0.00 in
11:33 77.7 °F 48.6 °F 30.06 in NW 1.2 mph 1.2 mph 36 % 0.00 in
11:38 78.0 °F 48.9 °F 30.06 in WNW 1.2 mph   36 % 0.00 in
11:43 78.7 °F 50.2 °F 30.06 in South 2.3 mph 2.3 mph 37 % 0.00 in
11:48 79.1 °F 50.6 °F 30.06 in NW 2.3 mph 2.3 mph 37 % 0.00 in
11:53 79.6 °F 50.3 °F 30.06 in West 1.0 mph 1.0 mph 36 % 0.00 in
11:58 80.0 °F 49.9 °F 30.06 in NW 1.2 mph 1.2 mph 35 % 0.00 in
12:03 79.9 °F 50.6 °F 30.06 in WNW 1.2 mph 1.2 mph 36 % 0.00 in
12:08 79.6 °F 49.5 °F 30.06 in NNW 2.3 mph 2.3 mph 35 % 0.00 in
12:13 79.2 °F 49.2 °F 30.06 in NW 1.2 mph 1.2 mph 35 % 0.00 in
12:18 79.0 °F 49.0 °F 30.06 in Calm   0.1 mph 35 % 0.00 in
12:20 79.1 °F 48.3 °F 30.06 in NW 1.2 mph 1.2 mph 34 % 0.00 in
12:25 79.1 °F 49.1 °F 30.06 in WNW 2.3 mph 2.3 mph 35 % 0.00 in
12:30 79.2 °F 49.2 °F 30.06 in West 1.2 mph   35 % 0.00 in
12:35 79.4 °F 49.4 °F 30.05 in NNW 1.2 mph   35 % 0.00 in
12:45 79.6 °F 49.5 °F 30.05 in SE 3.5 mph 3.5 mph 35 % 0.00 in
12:50 79.2 °F 49.9 °F 30.05 in NW 2.3 mph 2.3 mph 36 % 0.00 in
12:55 78.9 °F 48.9 °F 30.05 in NW 3.5 mph 3.5 mph 35 % 0.00 in
13:00 79.0 °F 49.0 °F 30.04 in NW 2.3 mph 2.3 mph 35 % 0.00 in
13:05 79.4 °F 47.8 °F 30.04 in NW 2.3 mph 2.3 mph 33 % 0.00 in
13:10 79.6 °F 48.0 °F 30.04 in NW 1.2 mph 1.2 mph 33 % 0.00 in
13:15 79.6 °F 48.0 °F 30.04 in West 1.2 mph   33 % 0.00 in
13:20 79.3 °F 48.5 °F 30.03 in WNW 1.2 mph 1.4 mph 34 % 0.00 in
13:25 79.0 °F 49.0 °F 30.03 in WNW 1.2 mph   35 % 0.00 in
13:30 78.8 °F 51.0 °F 30.03 in NW 1.2 mph 1.2 mph 38 % 0.00 in
13:35 79.3 °F 48.5 °F 30.02 in WSW 1.2 mph 1.2 mph 34 % 0.00 in
13:40 80.2 °F 48.5 °F 30.02 in NW 3.0 mph 3.0 mph 33 % 0.00 in
13:45 80.8 °F 48.2 °F 30.02 in WNW 2.3 mph 2.3 mph 32 % 0.00 in
13:46 80.9 °F 49.9 °F 30.02 in NW 1.2 mph 1.2 mph 34 % 0.00 in
13:51 81.6 °F 48.0 °F 30.01 in WNW 1.2 mph 1.2 mph 31 % 0.00 in
13:56 81.8 °F 49.1 °F 30.01 in NW 2.3 mph 2.3 mph 32 % 0.00 in
14:01 81.8 °F 48.2 °F 30.01 in NNE 1.2 mph   31 % 0.00 in
14:06 82.0 °F 48.4 °F 30.01 in North 3.5 mph 3.5 mph 31 % 0.00 in
14:11 82.1 °F 45.8 °F 30.01 in WNW 3.5 mph 3.5 mph 28 % 0.00 in
14:16 82.1 °F 46.7 °F 30.00 in WNW 1.2 mph 1.2 mph 29 % 0.00 in
14:21 82.3 °F 47.8 °F 30.00 in NW 2.0 mph 2.0 mph 30 % 0.00 in
14:26 82.8 °F 47.3 °F 30.00 in WNW 3.5 mph 3.5 mph 29 % 0.00 in
14:31 83.0 °F 47.5 °F 30.00 in NW 2.0 mph 2.0 mph 29 % 0.00 in
14:36 83.1 °F 46.6 °F 30.00 in NNW 3.5 mph 3.5 mph 28 % 0.00 in
14:41 83.6 °F 46.1 °F 30.00 in North 1.2 mph 1.2 mph 27 % 0.00 in
14:46 83.8 °F 47.2 °F 30.00 in NW 1.2 mph   28 % 0.00 in
14:51 83.6 °F 47.0 °F 30.00 in NW 2.3 mph 2.3 mph 28 % 0.00 in
14:56 83.7 °F 48.1 °F 30.00 in NW 2.3 mph 2.3 mph 29 % 0.00 in
15:01 83.6 °F 47.0 °F 30.00 in WNW 2.3 mph 2.3 mph 28 % 0.00 in
15:06 83.5 °F 47.0 °F 30.00 in NW 2.3 mph 2.3 mph 28 % 0.00 in
15:11 83.5 °F 45.0 °F 29.99 in WNW 1.2 mph 1.2 mph 26 % 0.00 in
15:16 83.9 °F 48.2 °F 29.99 in Calm     29 % 0.00 in
15:21 84.0 °F 47.4 °F 29.99 in NW 2.3 mph 2.3 mph 28 % 0.00 in
15:26 83.5 °F 48.8 °F 29.99 in NW 2.0 mph 2.0 mph 30 % 0.00 in
15:31 83.2 °F 48.5 °F 29.99 in NNW 3.5 mph 3.5 mph 30 % 0.00 in
15:36 83.0 °F 49.2 °F 29.99 in NW 1.2 mph 1.2 mph 31 % 0.00 in
15:41 83.2 °F 48.5 °F 29.99 in NW 2.3 mph 2.3 mph 30 % 0.00 in
15:46 83.1 °F 47.5 °F 29.99 in NW 2.3 mph 2.3 mph 29 % 0.00 in
15:51 83.0 °F 47.5 °F 29.98 in WNW 2.3 mph 2.3 mph 29 % 0.00 in
15:56 83.0 °F 45.6 °F 29.99 in NW 3.5 mph 3.5 mph 27 % 0.00 in
16:01 83.2 °F 46.7 °F 29.99 in NW 3.5 mph 3.5 mph 28 % 0.00 in
16:06 83.2 °F 47.6 °F 29.98 in West 1.2 mph 1.2 mph 29 % 0.00 in
16:11 83.2 °F 47.6 °F 29.98 in NW 1.2 mph 1.2 mph 29 % 0.00 in
16:16 83.3 °F 46.8 °F 29.98 in NW 2.3 mph 2.3 mph 28 % 0.00 in
16:22 83.0 °F 46.5 °F 29.98 in North 1.2 mph 1.2 mph 28 % 0.00 in
16:27 82.8 °F 45.4 °F 29.98 in WNW 1.2 mph 1.2 mph 27 % 0.00 in
16:32 82.7 °F 48.1 °F 29.98 in WNW 2.3 mph 2.3 mph 30 % 0.00 in
16:37 82.7 °F 49.0 °F 29.99 in West 1.2 mph 1.2 mph 31 % 0.00 in
16:42 82.5 °F 49.7 °F 29.98 in NW 2.3 mph 2.3 mph 32 % 0.00 in
16:43 82.5 °F 47.9 °F 29.98 in NW 2.3 mph 2.3 mph 30 % 0.00 in
16:48 82.1 °F 46.7 °F 29.98 in WNW 2.3 mph 2.3 mph 29 % 0.00 in
16:53 81.5 °F 46.2 °F 29.98 in NW 1.2 mph   29 % 0.00 in
16:59 80.9 °F 46.6 °F 29.98 in Calm     30 % 0.00 in
17:04 80.2 °F 45.9 °F 29.98 in Calm     30 % 0.00 in
17:09 79.5 °F 46.2 °F 29.98 in Calm     31 % 0.00 in
17:14 78.8 °F 47.3 °F 29.98 in Calm     33 % 0.00 in
17:19 78.3 °F 47.6 °F 29.98 in Calm     34 % 0.00 in
Park Place, Exeter, Tulare County, California, USA
Compliments of Weather Underground - 2.25 mb